Flag for U.S.A. Weather past 2 weeks in Tallahassee, Florida, U.S.A.

Now
52 °F

Mostly cloudy.


Feels Like: 51 °F
Forecast: 45 / 65 °F
Wind: 5 mph from Northeast

Location: Tallahassee Regional Airport

Current Time: Dec 20, 2014 at 7:00:16 AM

Latest Report: Dec 20, 2014 at 5:53 AM


Visibility: 10 mi

Pressure: 30.09 "Hg

Humidity: 80%

Dew point: 46 °F

Location of TallahasseeLocation

Historic Weather in Tallahassee — Graph

°F

Tallahassee temperature yesterday

Maximum temperature yesterday: 63 °F (at 11:53 AM)
Minimum temperature yesterday: 41 °F (at 12:53 AM)
Average temperature yesterday: 52 °F

Past Weeks' High & Low Weather Summary

 TemperatureHumidityPressure
High79 °F (Dec 16, 3:53 PM)93% (Dec 16, 3:53 AM)30.33 "Hg (Dec 16, 3:53 AM)
Low30 °F (Dec 12, 6:53 AM)18% (Dec 12, 2:53 PM)30.03 "Hg (Dec 16, 2:53 PM)
Average51 °F69%30.16 "Hg
* Reported Dec 5 5:53 AM — Dec 20 5:53 AM, Tallahassee, Weather by CustomWeather, © 2014

Note: Actual official high and low records may vary slightly from our data, if they occured in-between our weather recording intervals... More about our weather records

Advertising

Tallahassee weather history for previous 24 hours

 ConditionsComfort  
Time TempWeatherWind HumidityBarometerVisibility
5:53 AM
Dec 20
52 °FMostly cloudy.5 mph80%30.09 "Hg10 mi
4:53 AM52 °FMostly cloudy.3 mph80%30.08 "Hg10 mi
3:53 AM52 °FOvercast.5 mph83%30.08 "Hg10 mi
2:53 AM52 °FOvercast.No wind83%30.10 "Hg10 mi
1:53 AM52 °FOvercast.3 mph83%30.10 "Hg10 mi
12:53 AM51 °FMostly cloudy.5 mph86%30.11 "Hg10 mi
11:53 PM
Dec 19
52 °FOvercast.3 mph86%30.13 "Hg7 mi
10:53 PM53 °FMostly cloudy.3 mph86%30.13 "Hg10 mi
9:53 PM53 °FMostly cloudy.3 mph86%30.12 "Hg10 mi
8:53 PM53 °FLight rain. Overcast.No wind83%30.12 "Hg10 mi
7:53 PM53 °FLight rain. Overcast.7 mph83%30.12 "Hg10 mi
6:53 PM53 °FLight rain. Overcast.6 mph83%30.11 "Hg10 mi
5:53 PM54 °FPassing clouds.No wind80%30.07 "Hg10 mi
4:53 PM56 °FPartly sunny.5 mph72%30.08 "Hg10 mi
3:53 PM55 °FPartly sunny.3 mph72%30.08 "Hg10 mi
2:53 PM54 °FLight rain. Broken clouds.3 mph77%30.06 "Hg10 mi
1:53 PM55 °FRain. More clouds than sun.8 mph74%30.15 "Hg6 mi
12:53 PM63 °FPartly sunny.No wind37%30.14 "Hg10 mi
11:53 AM63 °FPartly sunny.7 mph38%30.15 "Hg10 mi
10:53 AM60 °FBroken clouds.3 mph42%30.16 "Hg10 mi
9:53 AM56 °FPartly sunny.7 mph51%30.15 "Hg10 mi
8:53 AM51 °FMostly cloudy.No wind66%30.15 "Hg10 mi
7:53 AM48 °FPartly sunny.No wind68%30.14 "Hg10 mi
Weather by CustomWeather, © 2014

See weather overviewHow to use our weather pages